This demonstration page uses our WeatherBlox Daily Observations layout. Learn more.

38.88101, -77.10428

Hourly Observations for April 1, 2020

Temp ( °F °C ) Dew Point ( °F °C ) Humidity (%) Winds ( mph kmh ) Pressure ( in mb ) Visibility ( mi km ) Precip ( " mm )
12:52 am 00:52 Cloudy 44 6.7 39 3.9 83 83 ENE 18 30 29.82 1010 10 16.0934 0.001 0.001
1:37 am 01:37 Cloudy 43 6.1 39 3.9 86 86 NE 15 24 29.82 1010 10 16.0934 0 0
1:52 am 01:52 Cloudy 43 6.1 38 3.3 82 82 NNE 13 20 29.81 1010 10 16.0934 0 0
2:23 am 02:23 Cloudy 43 6.1 37 2.8 80 80 NE 15 24 29.8 1009 10 16.0934 0 0
2:52 am 02:52 Cloudy 43 6.1 37 2.8 80 80 NE 15 24 29.79 1009 10 16.0934 0 0
3:52 am 03:52 Cloudy 43 6.1 36 2.2 76 76 NNE 12 19 29.78 1009 10 16.0934 0 0
4:52 am 04:52 Cloudy 43 6.1 36 2.2 76 76 NNE 13 20 29.78 1008 10 16.0934 0 0
5:52 am 05:52 Cloudy 42 5.6 35 1.7 76 76 N 17 28 29.78 1009 10 16.0934 0 0
6:52 am 06:52 Cloudy 42 5.6 36 2.2 79 79 N 14 22 29.81 1009 10 16.0934 0 0
7:03 am 07:03 Cloudy 42 5.6 36 2.2 79 79 NNE 14 22 29.82 1010 10 16.0934 0 0
7:52 am 07:52 Cloudy 43 6.1 36 2.2 76 76 N 16 26 29.83 1010 10 16.0934 0 0
8:02 am 08:02 Cloudy 43 6.1 36 2.2 76 76 N 13 20 29.84 1011 10 16.0934 0 0
8:52 am 08:52 Cloudy 44 6.7 37 2.8 76 76 N 13 20 29.85 1011 10 16.0934 0 0
9:13 am 09:13 Mostly Cloudy 44 6.7 36 2.2 73 73 NNE 14 22 29.85 1011 10 16.0934 0 0
9:49 am 09:49 Cloudy 45 7 36 2 71 71 NNE 16 26 29.85 1011 10 16.0934 0 0
9:52 am 09:52 Cloudy 45 7.2 36 2.2 71 71 NNE 14 22 29.85 1011 10 16.0934 0 0
10:21 am 10:21 Cloudy 47 8.3 36 2.2 66 66 NNE 15 24 29.86 1011 10 16.0934 0 0
10:33 am 10:33 Cloudy 48 8.9 36 2.2 63 63 N 14 22 29.86 1011 10 16.0934 0 0
10:52 am 10:52 Cloudy 48 8.9 35 1.7 61 61 NNE 13 20 29.86 1011 10 16.0934 0 0
11:52 am 11:52 Cloudy 49 9.4 37 2.8 64 64 N 15 24 29.86 1011 10 16.0934 0 0
12:52 pm 12:52 Mostly Cloudy 49 9.4 37 2.8 64 64 N 13 20 29.85 1011 10 16.0934 0 0
1:52 pm 13:52 Cloudy 51 10.6 38 3.3 61 61 NNW 17 28 29.84 1010 10 16.0934 0 0
2:52 pm 14:52 Cloudy 53 11.7 38 3.3 57 57 NNW 12 19 29.82 1010 10 16.0934 0 0
3:52 pm 15:52 Mostly Cloudy 55 12.8 40 4.4 57 57 NW 6 9 29.81 1010 10 16.0934 0 0
4:52 pm 16:52 Mostly Cloudy 56 13.3 39 3.9 53 53 NW 10 17 29.8 1009 10 16.0934 0 0
5:52 pm 17:52 Mostly Cloudy 55 12.8 39 3.9 55 55 N 10 17 29.8 1009 10 16.0934 0 0
6:52 pm 18:52 Mostly Cloudy 54 12.2 39 3.9 57 57 N 8 13 29.81 1009 10 16.0934 0 0
7:52 pm 19:52 Mostly Cloudy 54 12.2 39 3.9 57 57 NW 6 9 29.82 1010 10 16.0934 0 0
8:52 pm 20:52 Mostly Cloudy 53 11.7 40 4.4 61 61 NW 10 17 29.84 1011 10 16.0934 0 0
9:52 pm 21:52 Cloudy 53 11.7 39 3.9 59 59 NW 8 13 29.85 1011 10 16.0934 0 0
10:52 pm 22:52 Mostly Cloudy 53 11.7 40 4.4 61 61 NW 6 9 29.85 1011 10 16.0934 0 0
11:52 pm 23:52 Cloudy 52 11.1 40 4.4 64 64 WNW 5 7 29.86 1011 10 16.0934 0 0

Powered by AerisWeather